sat.trackr.live / text

‹ back to catalog

STARLINK-31544

NORAD 59399 · 2024-064B

PAYLOAD ACTIVE UNKNOWN

§ Identity

Operator
Country
US
Launch date
2024-04-05
Launch site
AFETR
Launch vehicle
Mass (kg)
RCS (m²)

Purposes: comms

External: N2YO · Heavens-Above · Gunter

§ Orbital elements

Epoch: 2026-09-21T15:53:13.280928Z

Period
94.27 min
Inclination
43.0041°
Eccentricity
0.0001176
Mean motion
15.27578981 rev/d
Perigee alt
482.2 km
Apogee alt
483.9 km
Semi-major
6,861.2 km
B*
1.1922e-5
RAAN
29.7350°
Arg perigee
273.4019°
Mean anomaly
86.6698°
Rev number
13,919

§ Raw data

STARLINK-315441 59399U 24064B   26264.66195927  .00000066  00000+0  11922-4 0  99962 59399  43.0041  29.7350 0001176 273.4019  86.6698 15.27578981139195

JSON: /api/v1/satellites/59399 · /tle

For live sub-satellite position, see the globe view (requires WebGL).

§ Visibility from observer

Set your observer location to see the next 7 days of passes ≥ 10°. The values pass through the URL so the page stays shareable.

No JS? Fill the form by hand. The geolocation button needs JavaScript.